THOR ABLESTAR DEB, 655

Orbit data source: Space-Track

THOR ABLESTAR DEB, 655 is space debris in LEO originally from a launch on Thu, 29 Jun 1961 UTC launched from the Air Force Eastern Test Range (AFETR). Debris objects in space refer to the collection of defunct objects orbiting the Earth. Examples of debris include non-operational satellites, rocket bodies, and fragments generated from explosions, collisions, or faulty payload assembly.

Loading next visibility...
Identifier
655, 1961-015HG
Orbit
LEO
Country
Flag of USUS
Related business
Manufacturer
Unknown
Mission
Spacecraft
Bus & Motor
Unknown
Mass
Unknown
Launch date (UTC)
1961-06-29 (64 years ago)
Launch vehicle
Unknown
Launch site
Air Force Eastern Test Range (AFETR)
Object type
Payload
Rocket body
Debris
Shape & HBR
Unknown
Radar Cross Section
Small (<0.1 m²)

Expand to show TLE details & history
Last TLE update: 22 hours ago

TLE from 22 hours ago
0 THOR ABLESTAR DEB
1 00655U 61015HG  25242.74170296  .00000780  00000-0  17561-2 0  9997
2 00655  67.2543 127.1616 0365708 160.6419 273.3909 13.09292362 48906
Epoch: 2025-08-30T17:48Z
TLE epoch observation values (Epoch: 2025-08-30T17:48:03.135Z)
Latitude
60.07709°
Longitude
-72.57564°
Altitude
1,229.032 km
Speed
7.249 km/s
True Right ascension
11h 34m 26s
True Declination
59° 56' 15"
Sunlit
Object was in daylight at epoch
Visualization orbit readout
Latitude
Unknown
Longitude
Unknown
Altitude
Unknown
Speed
Unknown
Apparent Right ascension
Unknown
Apparent Declination
Unknown
Sunlit
N/A
Visualization observer readout
Local Sidereal Time
07:42:40
Azimuth
Unknown
Elevation
Unknown
Doppler factor
Unknown
Orbital elements
Apogee altitude
1,502.329 km
Perigee altitude
946.275 km
Semi-major axis
7,602.439 km
Eccentricity
0.03657
Inclination
67.2543°
RAAN
127.1616°
Arg. of periapsis
160.6419°
True anomaly
269.19993°
Mean anomaly
273.3909°
Eccentric anomaly
271.29608°
Mean motion
3.27426 °/min
Orbital period
109.95 mins
BSTAR
0.0017561
Loading maneuver chart data...
Computing Atmospheric mass density...

Documentation

Showing up to 5 results
|